Location: The Saddle
(36.8333°N, 80.3417°W)
Time: 15:37:23
(UTC-05:00)

A-11 Canister half - Visible Passes

Search period start: 30 January 2023 00:00
Search period end: 09 February 2023 00:00
Orbit: 1514 x 1686 km, 47.2° (Epoch: 30 January)

Date Brightness Start Highest point End Pass type
(mag) Time Alt. Az. Time Alt. Az. Time Alt. Az.
30 Jan 9.4 19:06:24 10° WNW 19:15:28 62° SW 19:24:33 10° SE visible
30 Jan 11.1 21:14:21 10° W 21:18:58 15° WSW 21:23:37 10° SSW visible
31 Jan 9.3 18:43:26 10° WNW 18:52:34 66° SW 19:01:42 10° SE visible
31 Jan 11.0 20:50:55 10° W 20:56:08 17° SW 21:01:23 10° SSW visible
01 Feb 9.3 18:20:28 10° WNW 18:29:40 70° SW 18:38:50 10° SE visible
01 Feb 11.0 20:27:36 10° W 20:33:18 18° SW 20:39:02 10° SSW visible
02 Feb 9.3 17:57:31 10° WNW 18:06:46 74° SW 18:15:58 10° SE visible
02 Feb 11.0 20:04:19 10° W 20:10:28 20° SW 20:16:38 10° SSW visible
03 Feb 11.0 19:41:07 10° W 19:47:38 22° SW 19:54:11 10° S visible
04 Feb 11.0 19:17:56 10° WNW 19:24:47 24° SW 19:31:40 10° S visible
05 Feb 11.0 18:54:47 10° WNW 19:01:57 26° SW 19:09:07 10° S visible
06 Feb 10.9 18:31:40 10° WNW 18:39:06 28° SW 18:46:32 10° S visible
07 Feb 10.9 18:08:34 10° WNW 18:16:16 30° SW 18:23:56 10° S visible
